Precipitable_Water
1.06 1.06 1.10 1.12 1.14 1.15 1.17 1.21 1.22 1.24 1.24 1.25 1.21 1.18 1.18 1.17 1.16 1.14 1.16 1.13 1.15 1.14 1.14 1.15 1.20 1.26 1.32 1.36 1.34 1.35 1.35 1.35 1.44 1.48 1.45 1.44 1.47 1.50 1.55 1.54 1.48 1.45 1.41 1.34 1.31 1.25 1.17 1.12 1.16 1.19 1.21 1.19 1.22 1.23 1.23 1.21 1.21 1.26 1.31 1.34 1.31 1.32 1.25 1.14 1.05 1.04 1.17 1.23 1.17 1.17 1.24 1.19 1.21 1.24 1.23 1.27 1.33 1.41 1.34 1.31 1.36 1.38 1.38 1.39 1.42
1.12 1.11 1.12 1.12 1.12 1.13 1.16 1.20 1.23 1.25 1.24 1.25 1.22 1.21 1.20 1.19 1.18 1.18 1.15 1.16 1.15 1.12 1.12 1.14 1.17 1.21 1.27 1.34 1.36 1.36 1.36 1.36 1.42 1.45 1.40 1.38 1.42 1.49 1.51 1.52 1.50 1.48 1.46 1.40 1.38 1.34 1.28 1.16 1.13 1.18 1.21 1.21 1.24 1.24 1.25 1.26 1.24 1.23 1.27 1.28 1.28 1.32 1.34 1.23 1.13 1.09 1.09 1.22 1.19 1.20 1.21 1.26 1.13 1.26 1.23 1.25 1.29 1.37 1.40 1.41 1.43 1.42 1.39 1.39 1.38
1.27 1.25 1.18 1.14 1.12 1.15 1.19 1.22 1.24 1.24 1.24 1.24 1.21 1.21 1.22 1.22 1.23 1.19 1.17 1.17 1.19 1.15 1.13 1.13 1.15 1.17 1.22 1.30 1.35 1.35 1.36 1.36 1.40 1.42 1.39 1.36 1.37 1.42 1.47 1.48 1.47 1.46 1.44 1.43 1.43 1.43 1.38 1.28 1.19 1.20 1.22 1.18 1.21 1.24 1.27 1.27 1.29 1.28 1.29 1.30 1.25 1.28 1.36 1.30 1.22 1.12 1.09 1.13 1.22 1.19 1.16 1.19 1.13 1.20 1.26 1.27 1.30 1.34 1.33 1.34 1.35 1.40 1.43 1.41 1.37
1.37 1.37 1.33 1.28 1.25 1.22 1.22 1.24 1.24 1.24 1.22 1.24 1.22 1.22 1.25 1.26 1.26 1.23 1.21 1.21 1.22 1.21 1.18 1.16 1.17 1.16 1.17 1.23 1.30 1.32 1.34 1.35 1.37 1.41 1.39 1.36 1.36 1.40 1.44 1.45 1.45 1.45 1.45 1.44 1.46 1.46 1.41 1.37 1.33 1.25 1.21 1.16 1.18 1.21 1.26 1.27 1.26 1.29 1.29 1.31 1.24 1.22 1.31 1.35 1.25 1.16 1.18 1.12 1.19 1.16 1.24 1.21 1.21 1.22 1.25 1.30 1.30 1.32 1.34 1.38 1.42 1.38 1.39 1.42 1.43
1.37 1.40 1.40 1.38 1.39 1.37 1.33 1.30 1.25 1.23 1.21 1.23 1.21 1.23 1.26 1.28 1.30 1.26 1.25 1.23 1.25 1.26 1.21 1.21 1.19 1.19 1.16 1.19 1.23 1.27 1.30 1.32 1.33 1.37 1.41 1.39 1.37 1.38 1.42 1.44 1.45 1.44 1.44 1.44 1.46 1.47 1.44 1.39 1.39 1.35 1.26 1.17 1.17 1.18 1.24 1.23 1.23 1.25 1.25 1.27 1.22 1.21 1.27 1.33 1.30 1.23 1.16 1.10 1.14 1.22 1.25 1.24 1.24 1.25 1.26 1.22 1.26 1.27 1.32 1.31 1.36 1.41 1.43 1.41 1.39
1.37 1.40 1.42 1.43 1.45 1.45 1.43 1.40 1.33 1.26 1.22 1.22 1.23 1.24 1.26 1.28 1.29 1.30 1.28 1.24 1.25 1.26 1.24 1.21 1.20 1.18 1.18 1.18 1.21 1.24 1.29 1.31 1.31 1.33 1.37 1.39 1.37 1.37 1.41 1.42 1.43 1.44 1.43 1.42 1.43 1.45 1.44 1.42 1.42 1.41 1.34 1.25 1.20 1.19 1.24 1.22 1.20 1.19 1.20 1.20 1.19 1.21 1.22 1.28 1.31 1.28 1.18 1.13 1.12 1.13 1.22 1.19 1.21 1.19 1.23 1.24 1.20 1.23 1.29 1.39 1.42 1.41 1.37 1.32 1.33
1.41 1.42 1.44 1.43 1.45 1.47 1.48 1.44 1.38 1.34 1.33 1.30 1.30 1.28 1.27 1.27 1.28 1.28 1.30 1.28 1.25 1.23 1.24 1.23 1.23 1.21 1.20 1.19 1.19 1.22 1.26 1.30 1.30 1.32 1.35 1.38 1.37 1.34 1.36 1.40 1.40 1.42 1.43 1.41 1.41 1.43 1.44 1.44 1.43 1.44 1.39 1.37 1.35 1.29 1.26 1.23 1.19 1.15 1.18 1.17 1.19 1.22 1.21 1.25 1.29 1.29 1.24 1.16 1.14 1.12 1.12 1.21 1.25 1.21 1.30 1.36 1.32 1.26 1.20 1.25 1.29 1.41 1.40 1.34 1.33
1.44 1.45 1.47 1.46 1.45 1.46 1.48 1.49 1.46 1.44 1.44 1.44 1.39 1.35 1.33 1.31 1.31 1.33 1.33 1.30 1.27 1.25 1.22 1.23 1.26 1.25 1.22 1.19 1.20 1.23 1.26 1.28 1.29 1.31 1.35 1.36 1.37 1.35 1.34 1.37 1.37 1.38 1.39 1.40 1.40 1.42 1.43 1.44 1.43 1.43 1.43 1.45 1.49 1.47 1.39 1.27 1.20 1.13 1.17 1.19 1.20 1.21 1.21 1.25 1.28 1.29 1.25 1.19 1.14 1.13 1.12 1.11 1.18 1.24 1.40 1.38 1.24 1.22 1.25 1.23 1.21 1.31 1.37 1.44 1.37
1.45 1.46 1.48 1.46 1.45 1.47 1.49 1.51 1.51 1.51 1.50 1.50 1.47 1.43 1.42 1.41 1.41 1.39 1.38 1.34 1.33 1.31 1.30 1.29 1.29 1.27 1.25 1.23 1.22 1.23 1.23 1.25 1.27 1.29 1.28 1.35 1.36 1.33 1.32 1.33 1.34 1.33 1.34 1.35 1.38 1.40 1.43 1.43 1.42 1.42 1.44 1.48 1.54 1.56 1.53 1.47 1.33 1.16 1.16 1.19 1.19 1.21 1.22 1.25 1.27 1.26 1.26 1.20 1.18 1.19 1.15 1.12 1.13 1.17 1.20 1.21 1.15 1.14 1.32 1.33 1.30 1.33 1.34 1.29 1.42
1.44 1.46 1.46 1.45 1.46 1.49 1.49 1.49 1.49 1.50 1.49 1.46 1.47 1.48 1.46 1.46 1.45 1.43 1.41 1.40 1.38 1.36 1.35 1.34 1.33 1.31 1.27 1.25 1.24 1.23 1.21 1.24 1.24 1.25 1.28 1.27 1.31 1.32 1.31 1.30 1.31 1.32 1.30 1.29 1.32 1.36 1.38 1.39 1.40 1.37 1.39 1.43 1.51 1.55 1.56 1.57 1.53 1.40 1.26 1.19 1.18 1.20 1.22 1.22 1.23 1.24 1.25 1.19 1.15 1.16 1.10 1.06 1.10 1.13 1.13 1.23 1.32 1.32 1.29 1.31 1.23 1.29 1.31 1.25 1.25
1.44 1.42 1.41 1.45 1.46 1.47 1.47 1.46 1.47 1.45 1.45 1.45 1.46 1.46 1.47 1.48 1.48 1.47 1.46 1.46 1.43 1.42 1.39 1.36 1.34 1.36 1.34 1.28 1.25 1.23 1.22 1.21 1.21 1.21 1.22 1.25 1.29 1.30 1.28 1.27 1.28 1.28 1.28 1.26 1.23 1.28 1.32 1.34 1.35 1.37 1.34 1.39 1.47 1.53 1.57 1.58 1.57 1.53 1.42 1.31 1.26 1.22 1.21 1.21 1.22 1.25 1.23 1.20 1.19 1.16 1.13 1.10 1.11 1.17 1.21 1.28 1.32 1.30 1.32 1.33 1.28 1.27 1.20 1.11 1.05
1.42 1.40 1.41 1.43 1.44 1.42 1.42 1.43 1.42 1.42 1.44 1.42 1.42 1.45 1.47 1.48 1.47 1.49 1.49 1.48 1.49 1.49 1.44 1.39 1.38 1.37 1.37 1.34 1.29 1.25 1.23 1.21 1.20 1.20 1.22 1.23 1.26 1.30 1.31 1.28 1.27 1.25 1.26 1.26 1.25 1.25 1.27 1.29 1.31 1.37 1.37 1.36 1.44 1.49 1.54 1.57 1.57 1.57 1.52 1.40 1.32 1.29 1.31 1.29 1.26 1.25 1.25 1.23 1.20 1.18 1.17 1.15 1.13 1.18 1.21 1.26 1.28 1.32 1.32 1.29 1.28 1.22 1.18 1.15 1.16
1.44 1.42 1.41 1.40 1.40 1.41 1.41 1.39 1.39 1.39 1.39 1.41 1.44 1.46 1.46 1.45 1.46 1.46 1.46 1.50 1.51 1.45 1.43 1.41 1.39 1.40 1.39 1.36 1.31 1.29 1.27 1.25 1.21 1.21 1.22 1.24 1.25 1.28 1.31 1.31 1.28 1.24 1.24 1.25 1.24 1.24 1.24 1.25 1.26 1.32 1.37 1.38 1.41 1.48 1.52 1.56 1.58 1.59 1.58 1.51 1.42 1.35 1.32 1.32 1.35 1.36 1.38 1.33 1.27 1.24 1.23 1.21 1.21 1.26 1.30 1.26 1.31 1.23 1.31 1.25 1.28 1.28 1.25 1.19 1.18
1.43 1.40 1.38 1.38 1.37 1.39 1.40 1.38 1.36 1.36 1.41 1.43 1.44 1.44 1.43 1.42 1.45 1.49 1.50 1.51 1.47 1.46 1.46 1.43 1.43 1.41 1.40 1.40 1.38 1.36 1.33 1.30 1.24 1.22 1.22 1.24 1.26 1.27 1.29 1.31 1.30 1.26 1.25 1.25 1.25 1.24 1.23 1.23 1.23 1.24 1.32 1.36 1.40 1.45 1.51 1.55 1.58 1.58 1.59 1.56 1.49 1.43 1.40 1.36 1.33 1.33 1.36 1.35 1.34 1.29 1.33 1.34 1.29 1.41 1.43 1.36 1.25 1.19 1.19 1.21 1.32 1.30 1.27 1.22 1.29
1.33 1.34 1.32 1.32 1.33 1.34 1.33 1.30 1.29 1.33 1.38 1.41 1.42 1.41 1.41 1.43 1.46 1.47 1.49 1.49 1.47 1.45 1.45 1.45 1.44 1.44 1.44 1.43 1.42 1.39 1.37 1.36 1.30 1.26 1.25 1.26 1.27 1.30 1.32 1.33 1.31 1.28 1.28 1.29 1.29 1.28 1.27 1.27 1.26 1.25 1.28 1.32 1.37 1.44 1.48 1.54 1.58 1.58 1.57 1.56 1.55 1.51 1.48 1.43 1.38 1.35 1.35 1.34 1.33 1.35 1.38 1.45 1.49 1.50 1.47 1.40 1.31 1.29 1.31 1.32 1.34 1.33 1.30 1.29 1.21
1.25 1.29 1.28 1.27 1.26 1.27 1.26 1.26 1.27 1.32 1.35 1.38 1.37 1.37 1.40 1.42 1.42 1.48 1.50 1.52 1.55 1.56 1.54 1.52 1.48 1.48 1.50 1.49 1.43 1.39 1.41 1.39 1.35 1.30 1.27 1.27 1.30 1.32 1.33 1.32 1.30 1.29 1.28 1.31 1.33 1.33 1.35 1.32 1.28 1.28 1.29 1.31 1.38 1.42 1.49 1.58 1.60 1.58 1.56 1.58 1.59 1.59 1.58 1.58 1.51 1.44 1.39 1.39 1.38 1.36 1.36 1.42 1.49 1.54 1.55 1.46 1.43 1.39 1.36 1.33 1.31 1.23 1.14 1.07 1.00
1.19 1.22 1.21 1.23 1.24 1.26 1.26 1.26 1.27 1.30 1.35 1.36 1.36 1.37 1.39 1.42 1.48 1.55 1.50 1.50 1.52 1.54 1.52 1.54 1.56 1.54 1.52 1.51 1.47 1.45 1.48 1.49 1.43 1.39 1.33 1.30 1.29 1.28 1.31 1.33 1.32 1.30 1.30 1.33 1.34 1.31 1.32 1.35 1.34 1.31 1.33 1.31 1.38 1.40 1.47 1.57 1.59 1.59 1.58 1.58 1.60 1.61 1.60 1.66 1.60 1.50 1.43 1.42 1.45 1.44 1.42 1.44 1.44 1.47 1.45 1.41 1.40 1.38 1.29 1.22 1.17 1.19 1.12 1.02 1.01
1.15 1.18 1.19 1.22 1.26 1.29 1.31 1.30 1.30 1.33 1.35 1.34 1.36 1.40 1.46 1.52 1.54 1.59 1.53 1.52 1.52 1.55 1.62 1.64 1.66 1.64 1.60 1.57 1.56 1.52 1.51 1.56 1.51 1.45 1.42 1.39 1.33 1.28 1.28 1.28 1.27 1.27 1.29 1.34 1.36 1.34 1.33 1.34 1.38 1.39 1.35 1.35 1.37 1.40 1.46 1.53 1.56 1.59 1.60 1.59 1.57 1.57 1.61 1.66 1.65 1.53 1.48 1.45 1.46 1.45 1.44 1.41 1.42 1.43 1.41 1.37 1.34 1.31 1.21 1.07 1.13 1.15 1.10 1.09 0.98
1.15 1.19 1.26 1.33 1.37 1.37 1.37 1.36 1.36 1.37 1.37 1.39 1.44 1.46 1.50 1.54 1.61 1.66 1.63 1.61 1.58 1.63 1.66 1.65 1.68 1.71 1.71 1.71 1.72 1.67 1.63 1.64 1.58 1.50 1.47 1.43 1.41 1.40 1.36 1.32 1.27 1.26 1.26 1.26 1.31 1.34 1.34 1.37 1.38 1.41 1.41 1.39 1.38 1.40 1.46 1.53 1.57 1.61 1.63 1.61 1.57 1.57 1.62 1.65 1.59 1.58 1.49 1.42 1.42 1.43 1.40 1.40 1.40 1.40 1.38 1.34 1.29 1.28 1.26 1.17 1.17 1.12 1.06 1.03 0.95
1.24 1.27 1.28 1.31 1.34 1.37 1.39 1.40 1.42 1.44 1.45 1.50 1.55 1.58 1.63 1.65 1.66 1.66 1.67 1.68 1.66 1.67 1.67 1.66 1.67 1.70 1.75 1.75 1.74 1.72 1.66 1.70 1.66 1.58 1.54 1.50 1.47 1.46 1.45 1.37 1.30 1.30 1.31 1.26 1.26 1.30 1.34 1.37 1.38 1.36 1.38 1.41 1.38 1.38 1.44 1.52 1.60 1.66 1.68 1.63 1.60 1.57 1.66 1.63 1.61 1.63 1.58 1.44 1.38 1.36 1.34 1.37 1.39 1.39 1.41 1.36 1.33 1.30 1.25 1.19 1.18 1.14 1.06 0.97 0.92
1.27 1.27 1.30 1.31 1.34 1.40 1.46 1.48 1.47 1.50 1.55 1.59 1.63 1.63 1.65 1.64 1.64 1.64 1.66 1.69 1.69 1.69 1.67 1.67 1.67 1.68 1.73 1.74 1.73 1.70 1.70 1.71 1.73 1.65 1.65 1.63 1.59 1.55 1.52 1.46 1.40 1.39 1.35 1.32 1.30 1.29 1.31 1.32 1.37 1.32 1.34 1.37 1.36 1.37 1.44 1.53 1.64 1.69 1.69 1.67 1.68 1.70 1.70 1.60 1.63 1.65 1.60 1.46 1.37 1.35 1.35 1.36 1.37 1.43 1.46 1.48 1.35 1.27 1.22 1.19 1.21 1.19 1.06 0.95 0.90
1.32 1.31 1.31 1.31 1.35 1.40 1.44 1.49 1.54 1.54 1.55 1.58 1.59 1.59 1.60 1.60 1.58 1.58 1.59 1.61 1.61 1.62 1.66 1.67 1.65 1.65 1.69 1.72 1.72 1.68 1.70 1.70 1.72 1.64 1.65 1.67 1.68 1.66 1.59 1.51 1.47 1.46 1.39 1.32 1.28 1.26 1.25 1.26 1.28 1.27 1.30 1.33 1.34 1.38 1.47 1.57 1.64 1.69 1.71 1.75 1.77 1.72 1.65 1.65 1.70 1.65 1.54 1.44 1.35 1.33 1.36 1.40 1.44 1.43 1.41 1.38 1.30 1.23 1.20 1.17 1.13 1.13 1.10 1.02 0.94
1.35 1.36 1.38 1.38 1.41 1.45 1.49 1.49 1.49 1.50 1.47 1.49 1.49 1.48 1.53 1.54 1.55 1.59 1.59 1.57 1.57 1.58 1.59 1.63 1.62 1.59 1.60 1.64 1.69 1.66 1.67 1.71 1.68 1.62 1.61 1.63 1.66 1.67 1.67 1.64 1.57 1.51 1.40 1.27 1.23 1.22 1.25 1.28 1.27 1.29 1.28 1.31 1.35 1.42 1.51 1.60 1.64 1.69 1.74 1.75 1.74 1.72 1.68 1.66 1.64 1.58 1.43 1.37 1.34 1.34 1.38 1.40 1.40 1.36 1.34 1.29 1.26 1.22 1.15 1.11 1.10 1.09 1.07 1.03 1.00
1.36 1.36 1.36 1.37 1.39 1.41 1.46 1.50 1.51 1.49 1.49 1.50 1.51 1.48 1.48 1.50 1.52 1.54 1.55 1.54 1.51 1.50 1.55 1.56 1.57 1.54 1.50 1.49 1.53 1.55 1.64 1.68 1.70 1.66 1.60 1.60 1.61 1.60 1.65 1.73 1.82 1.69 1.53 1.38 1.31 1.32 1.33 1.31 1.34 1.35 1.33 1.33 1.40 1.48 1.57 1.62 1.65 1.70 1.74 1.74 1.74 1.73 1.71 1.60 1.57 1.47 1.39 1.34 1.30 1.34 1.38 1.41 1.39 1.36 1.30 1.27 1.22 1.19 1.15 1.11 1.08 1.06 1.02 0.99 0.98
1.33 1.33 1.33 1.34 1.36 1.40 1.42 1.44 1.48 1.50 1.51 1.51 1.46 1.45 1.45 1.48 1.46 1.53 1.53 1.52 1.48 1.45 1.46 1.47 1.48 1.47 1.47 1.44 1.46 1.55 1.64 1.69 1.70 1.69 1.62 1.60 1.62 1.66 1.73 1.76 1.79 1.82 1.79 1.67 1.55 1.48 1.46 1.41 1.41 1.38 1.37 1.39 1.46 1.54 1.62 1.67 1.71 1.73 1.74 1.74 1.74 1.73 1.65 1.54 1.51 1.46 1.35 1.31 1.33 1.37 1.40 1.42 1.41 1.37 1.39 1.36 1.28 1.20 1.11 1.06 1.04 1.00 1.01 0.99 0.96
1.24 1.25 1.29 1.33 1.36 1.39 1.40 1.44 1.48 1.52 1.54 1.56 1.53 1.54 1.52 1.52 1.49 1.52 1.54 1.51 1.51 1.50 1.50 1.52 1.51 1.52 1.49 1.51 1.54 1.60 1.69 1.71 1.68 1.69 1.66 1.56 1.58 1.62 1.70 1.74 1.77 1.81 1.85 1.87 1.76 1.58 1.49 1.46 1.45 1.42 1.41 1.44 1.50 1.56 1.61 1.67 1.74 1.76 1.75 1.75 1.74 1.64 1.59 1.55 1.52 1.43 1.37 1.37 1.39 1.37 1.40 1.43 1.43 1.43 1.39 1.30 1.17 1.10 1.04 0.95 0.92 0.92 0.92 0.89 0.83
1.25 1.25 1.26 1.31 1.34 1.36 1.35 1.37 1.42 1.46 1.49 1.52 1.54 1.57 1.59 1.58 1.57 1.55 1.54 1.52 1.53 1.55 1.56 1.57 1.58 1.58 1.56 1.58 1.62 1.67 1.65 1.66 1.66 1.70 1.68 1.62 1.59 1.60 1.63 1.64 1.69 1.79 1.87 1.91 1.93 1.80 1.54 1.45 1.43 1.42 1.42 1.49 1.57 1.63 1.68 1.74 1.76 1.75 1.74 1.74 1.67 1.61 1.61 1.58 1.52 1.44 1.42 1.40 1.39 1.40 1.40 1.44 1.49 1.42 1.31 1.18 1.10 1.06 0.99 0.93 0.90 0.89 0.86 0.82 0.76
1.31 1.28 1.30 1.32 1.32 1.32 1.30 1.31 1.34 1.37 1.42 1.45 1.45 1.47 1.49 1.50 1.49 1.49 1.50 1.52 1.51 1.50 1.50 1.48 1.45 1.47 1.49 1.54 1.58 1.60 1.61 1.64 1.69 1.69 1.66 1.65 1.65 1.66 1.69 1.72 1.75 1.80 1.84 1.92 1.97 1.93 1.73 1.56 1.49 1.49 1.51 1.55 1.61 1.65 1.69 1.72 1.72 1.70 1.70 1.67 1.62 1.66 1.69 1.67 1.58 1.53 1.51 1.46 1.41 1.44 1.45 1.45 1.37 1.33 1.23 1.12 1.06 1.00 0.96 0.93 0.89 0.87 0.83 0.78 0.69
1.28 1.27 1.28 1.27 1.27 1.32 1.34 1.34 1.36 1.37 1.39 1.43 1.46 1.50 1.50 1.49 1.48 1.50 1.59 1.65 1.62 1.53 1.46 1.47 1.49 1.54 1.58 1.58 1.54 1.52 1.52 1.49 1.53 1.75 1.80 1.76 1.76 1.77 1.74 1.75 1.81 1.84 1.89 1.94 2.01 2.06 1.96 1.77 1.52 1.45 1.46 1.50 1.55 1.57 1.58 1.60 1.60 1.65 1.66 1.64 1.64 1.70 1.68 1.58 1.49 1.48 1.49 1.43 1.40 1.40 1.39 1.37 1.34 1.25 1.13 1.05 0.99 0.95 0.97 0.94 0.91 0.84 0.81 0.75 0.64
1.12 1.11 1.11 1.10 1.10 1.13 1.16 1.19 1.26 1.31 1.33 1.35 1.38 1.41 1.50 1.52 1.53 1.49 1.50 1.54 1.53 1.54 1.49 1.41 1.45 1.46 1.41 1.47 1.54 1.51 1.49 1.57 1.67 1.74 1.75 1.69 1.64 1.63 1.67 1.74 1.87 1.93 1.98 2.08 2.09 1.98 1.92 1.82 1.65 1.45 1.40 1.50 1.52 1.49 1.49 1.49 1.46 1.46 1.54 1.61 1.69 1.69 1.61 1.57 1.57 1.54 1.49 1.43 1.41 1.37 1.33 1.33 1.25 1.14 1.05 0.98 0.94 0.94 0.98 0.94 0.90 0.84 0.74 0.68 0.60
0.97 0.95 0.96 0.95 0.99 1.01 1.03 1.05 1.10 1.13 1.14 1.14 1.12 1.07 1.02 1.00 1.02 1.02 1.01 0.98 0.95 0.95 0.97 1.01 1.06 1.12 1.15 1.12 1.18 1.25 1.26 1.28 1.33 1.43 1.54 1.59 1.63 1.61 1.58 1.60 1.65 1.79 2.00 2.06 1.97 1.77 1.74 1.80 1.80 1.66 1.51 1.50 1.50 1.47 1.46 1.46 1.45 1.45 1.49 1.52 1.53 1.59 1.59 1.56 1.55 1.50 1.44 1.41 1.37 1.35 1.34 1.26 1.16 1.09 1.01 0.95 0.92 0.92 0.97 0.96 0.89 0.83 0.73 0.64 0.55
0.95 0.96 0.99 1.01 1.03 1.03 1.02 1.02 1.01 0.98 0.97 0.99 0.98 0.98 0.97 0.97 1.00 0.99 0.99 0.99 0.99 0.99 0.98 0.97 0.96 0.95 0.97 0.98 0.96 0.96 0.99 1.03 1.05 1.12 1.26 1.43 1.52 1.52 1.52 1.54 1.59 1.68 1.75 1.84 1.82 1.78 1.76 1.76 1.78 1.77 1.69 1.58 1.51 1.47 1.48 1.46 1.47 1.47 1.49 1.48 1.51 1.53 1.54 1.51 1.50 1.45 1.42 1.36 1.35 1.32 1.26 1.19 1.14 1.07 1.00 0.94 0.92 0.92 0.93 0.90 0.80 0.74 0.70 0.61 0.53
0.97 0.96 0.98 0.98 0.98 0.99 1.01 1.01 1.02 1.02 0.99 0.98 0.97 0.99 0.96 0.93 0.89 0.90 1.04 1.03 1.04 1.02 0.99 0.99 0.99 0.98 0.98 1.00 1.01 0.98 0.95 0.93 0.92 0.92 0.92 0.95 1.06 1.26 1.42 1.46 1.52 1.63 1.73 1.70 1.66 1.65 1.68 1.76 1.79 1.82 1.84 1.77 1.62 1.55 1.53 1.52 1.51 1.51 1.51 1.48 1.45 1.47 1.51 1.54 1.51 1.44 1.40 1.36 1.33 1.26 1.21 1.17 1.11 1.05 0.97 0.94 0.91 0.87 0.88 0.84 0.75 0.69 0.64 0.55 0.51
1.05 1.04 1.04 1.04 1.03 1.02 1.02 1.04 1.03 1.01 1.00 1.01 1.01 1.03 1.02 0.98 0.94 0.93 0.92 0.92 1.03 1.07 1.06 1.05 1.02 1.00 1.01 1.01 1.00 0.99 0.97 0.94 0.92 0.90 0.89 0.90 0.94 1.02 1.18 1.40 1.58 1.70 1.73 1.68 1.63 1.68 1.65 1.64 1.71 1.77 1.81 1.78 1.78 1.70 1.62 1.58 1.58 1.54 1.51 1.47 1.46 1.50 1.53 1.52 1.43 1.42 1.38 1.32 1.26 1.23 1.21 1.15 1.09 1.01 0.94 0.92 0.91 0.88 0.80 0.73 0.70 0.66 0.58 0.52 0.50
1.06 1.06 1.08 1.09 1.08 1.06 1.06 1.05 1.04 1.03 1.02 1.02 1.02 1.01 1.00 1.00 1.00 0.97 0.94 0.92 0.91 0.89 0.91 0.97 1.02 1.02 0.99 1.00 1.02 1.00 0.97 0.94 0.90 0.88 0.88 0.91 0.95 0.99 1.10 1.21 1.30 1.49 1.63 1.69 1.70 1.72 1.72 1.64 1.55 1.45 1.70 1.95 1.97 1.80 1.70 1.68 1.64 1.50 1.43 1.42 1.46 1.49 1.50 1.45 1.40 1.38 1.33 1.29 1.26 1.22 1.18 1.12 1.06 1.00 0.95 0.89 0.87 0.84 0.77 0.70 0.67 0.63 0.57 0.53 0.51
1.09 1.08 1.09 1.09 1.09 1.08 1.07 1.06 1.06 1.04 1.02 1.02 1.03 1.00 1.00 1.01 1.00 1.02 1.02 1.00 0.95 0.92 0.93 0.96 0.97 1.03 1.06 1.06 1.06 1.04 1.00 0.95 0.91 0.89 0.90 0.93 0.99 1.06 1.04 1.10 1.25 1.32 1.52 1.74 1.80 1.77 1.65 1.67 1.65 1.75 1.77 1.69 1.55 1.59 1.72 1.66 1.54 1.47 1.45 1.44 1.46 1.46 1.43 1.40 1.39 1.36 1.32 1.29 1.23 1.21 1.16 1.09 1.04 0.99 0.94 0.90 0.89 0.82 0.74 0.70 0.67 0.62 0.57 0.52 0.50
1.12 1.11 1.10 1.11 1.11 1.10 1.10 1.10 1.09 1.08 1.06 1.05 1.03 1.03 1.04 1.02 1.00 1.00 1.01 0.97 0.94 0.98 0.98 0.98 0.98 1.00 1.06 1.09 1.08 1.08 1.08 1.04 1.00 0.95 0.95 0.96 0.98 1.02 1.05 1.19 1.41 1.55 1.66 1.80 1.79 1.67 1.78 1.74 1.77 1.75 1.75 1.74 1.71 1.69 1.62 1.55 1.51 1.49 1.47 1.48 1.47 1.43 1.40 1.37 1.37 1.36 1.32 1.26 1.23 1.20 1.12 1.06 1.04 0.99 0.93 0.87 0.84 0.78 0.73 0.71 0.66 0.60 0.55 0.49 0.44
1.14 1.12 1.13 1.14 1.15 1.14 1.13 1.11 1.11 1.11 1.11 1.10 1.08 1.05 1.02 1.03 1.02 1.02 0.99 0.95 0.95 0.99 0.99 0.99 0.98 0.97 0.98 1.02 1.11 1.12 1.12 1.13 1.10 1.09 1.12 1.05 1.01 1.10 1.35 1.47 1.61 1.73 1.79 1.76 1.85 1.91 1.85 1.81 1.87 1.81 1.77 1.80 1.69 1.61 1.57 1.53 1.50 1.49 1.48 1.47 1.45 1.42 1.42 1.41 1.41 1.35 1.32 1.29 1.22 1.16 1.11 1.08 1.07 0.99 0.95 0.86 0.80 0.76 0.73 0.69 0.64 0.58 0.50 0.43 0.39
1.12 1.13 1.13 1.13 1.13 1.14 1.14 1.13 1.13 1.12 1.09 1.09 1.07 1.05 1.02 1.02 1.03 1.02 1.02 1.00 1.00 1.03 1.05 1.04 0.99 0.98 1.03 1.10 1.09 1.15 1.15 1.13 1.11 1.15 1.22 1.15 1.06 1.40 1.52 1.62 1.71 1.71 1.75 1.88 2.00 1.91 1.92 1.87 1.79 1.73 1.69 1.67 1.60 1.54 1.54 1.51 1.51 1.48 1.47 1.45 1.44 1.43 1.43 1.38 1.36 1.34 1.30 1.24 1.18 1.14 1.10 1.10 1.04 1.01 0.97 0.88 0.80 0.75 0.71 0.67 0.61 0.53 0.45 0.40 0.37
1.10 1.08 1.10 1.13 1.13 1.11 1.13 1.13 1.13 1.12 1.10 1.09 1.07 1.07 1.06 1.06 1.06 1.08 1.07 1.04 1.02 1.07 1.11 1.08 1.05 1.04 1.12 1.17 1.13 1.16 1.12 1.19 1.21 1.26 1.24 1.24 1.43 1.55 1.66 1.66 1.68 1.76 1.85 1.83 1.90 1.92 1.91 1.74 1.61 1.51 1.51 1.54 1.55 1.55 1.57 1.54 1.49 1.49 1.47 1.43 1.41 1.38 1.38 1.37 1.34 1.32 1.25 1.18 1.13 1.11 1.11 1.09 1.03 1.01 0.94 0.85 0.78 0.74 0.70 0.65 0.56 0.47 0.42 0.41 0.43
1.14 1.11 1.09 1.08 1.14 1.16 1.13 1.12 1.11 1.12 1.13 1.11 1.10 1.09 1.08 1.10 1.12 1.13 1.12 1.09 1.10 1.14 1.17 1.18 1.15 1.13 1.21 1.26 1.24 1.22 1.19 1.20 1.28 1.28 1.25 1.18 1.38 1.45 1.57 1.75 1.84 1.87 1.88 1.91 1.84 1.64 1.56 1.54 1.54 1.51 1.52 1.52 1.53 1.54 1.56 1.55 1.52 1.50 1.47 1.44 1.42 1.39 1.38 1.36 1.32 1.26 1.19 1.14 1.12 1.12 1.12 1.09 1.03 0.96 0.85 0.80 0.76 0.72 0.68 0.60 0.50 0.43 0.41 0.40 0.41
1.20 1.17 1.13 1.10 1.11 1.13 1.13 1.11 1.13 1.15 1.14 1.12 1.10 1.10 1.12 1.14 1.15 1.17 1.14 1.15 1.17 1.21 1.25 1.25 1.20 1.22 1.27 1.32 1.33 1.27 1.24 1.22 1.23 1.27 1.32 1.33 1.34 1.37 1.51 1.57 1.57 1.61 1.62 1.63 1.60 1.58 1.54 1.51 1.50 1.49 1.49 1.50 1.53 1.54 1.54 1.52 1.52 1.48 1.45 1.42 1.40 1.38 1.33 1.28 1.24 1.19 1.15 1.12 1.12 1.11 1.09 1.04 0.95 0.89 0.82 0.77 0.73 0.67 0.60 0.52 0.45 0.43 0.41 0.40 0.39
1.21 1.19 1.19 1.17 1.13 1.12 1.12 1.11 1.12 1.11 1.13 1.14 1.15 1.17 1.16 1.15 1.17 1.20 1.20 1.20 1.20 1.24 1.26 1.24 1.24 1.22 1.25 1.31 1.41 1.37 1.30 1.27 1.25 1.26 1.28 1.34 1.38 1.38 1.37 1.41 1.48 1.55 1.62 1.66 1.67 1.60 1.55 1.52 1.51 1.51 1.50 1.52 1.53 1.52 1.53 1.51 1.49 1.46 1.44 1.42 1.37 1.30 1.23 1.21 1.18 1.15 1.13 1.12 1.10 1.05 1.01 0.95 0.89 0.83 0.79 0.73 0.67 0.61 0.53 0.47 0.42 0.41 0.41 0.41 0.42
1.29 1.28 1.26 1.23 1.24 1.22 1.19 1.17 1.15 1.15 1.16 1.18 1.19 1.18 1.17 1.19 1.21 1.19 1.21 1.19 1.20 1.20 1.25 1.26 1.26 1.24 1.25 1.28 1.40 1.43 1.38 1.32 1.33 1.32 1.31 1.31 1.32 1.36 1.41 1.45 1.49 1.53 1.57 1.60 1.62 1.61 1.56 1.53 1.51 1.52 1.53 1.55 1.56 1.58 1.54 1.51 1.49 1.44 1.39 1.33 1.27 1.21 1.17 1.14 1.12 1.11 1.09 1.06 1.01 0.96 0.93 0.90 0.85 0.79 0.73 0.67 0.63 0.58 0.50 0.46 0.43 0.41 0.42 0.41 0.41
1.29 1.28 1.28 1.26 1.27 1.26 1.25 1.24 1.23 1.22 1.20 1.20 1.21 1.19 1.16 1.15 1.15 1.18 1.17 1.18 1.18 1.23 1.24 1.27 1.27 1.27 1.26 1.25 1.33 1.37 1.38 1.41 1.45 1.48 1.42 1.40 1.37 1.39 1.41 1.42 1.48 1.53 1.56 1.53 1.54 1.58 1.57 1.55 1.54 1.52 1.52 1.55 1.53 1.51 1.48 1.46 1.43 1.37 1.30 1.23 1.15 1.10 1.09 1.07 1.05 1.04 1.01 0.96 0.94 0.92 0.89 0.84 0.79 0.72 0.66 0.64 0.61 0.56 0.50 0.47 0.45 0.43 0.41 0.41 0.40
1.27 1.26 1.24 1.23 1.22 1.22 1.22 1.23 1.24 1.25 1.22 1.22 1.19 1.18 1.18 1.18 1.18 1.16 1.17 1.18 1.22 1.22 1.28 1.29 1.30 1.29 1.27 1.25 1.29 1.33 1.33 1.33 1.31 1.32 1.41 1.45 1.44 1.47 1.51 1.54 1.54 1.52 1.52 1.49 1.50 1.49 1.49 1.50 1.48 1.45 1.44 1.43 1.43 1.41 1.37 1.33 1.29 1.25 1.22 1.18 1.13 1.10 1.07 1.04 1.02 0.99 0.97 0.95 0.92 0.88 0.83 0.77 0.73 0.68 0.65 0.64 0.60 0.54 0.50 0.49 0.48 0.46 0.43 0.40 0.37
1.24 1.22 1.22 1.21 1.20 1.20 1.20 1.21 1.20 1.19 1.21 1.18 1.19 1.18 1.20 1.21 1.21 1.22 1.25 1.25 1.21 1.25 1.26 1.29 1.31 1.28 1.29 1.30 1.29 1.30 1.32 1.33 1.31 1.32 1.34 1.36 1.39 1.43 1.45 1.49 1.50 1.50 1.51 1.51 1.50 1.50 1.49 1.48 1.45 1.41 1.37 1.34 1.32 1.29 1.26 1.24 1.21 1.19 1.16 1.13 1.08 1.04 1.02 1.00 0.98 0.96 0.94 0.91 0.87 0.82 0.78 0.73 0.71 0.69 0.65 0.61 0.58 0.54 0.50 0.48 0.47 0.46 0.44 0.40 0.39
1.18 1.18 1.18 1.17 1.17 1.16 1.15 1.16 1.15 1.16 1.16 1.16 1.16 1.19 1.20 1.21 1.22 1.22 1.22 1.24 1.25 1.29 1.32 1.33 1.25 1.30 1.35 1.33 1.32 1.31 1.32 1.34 1.38 1.42 1.40 1.43 1.46 1.44 1.44 1.45 1.45 1.43 1.44 1.44 1.45 1.45 1.44 1.41 1.38 1.34 1.30 1.27 1.24 1.21 1.20 1.17 1.14 1.09 1.05 1.03 1.01 1.01 1.02 1.01 1.01 0.97 0.94 0.90 0.86 0.83 0.79 0.75 0.72 0.69 0.65 0.60 0.54 0.52 0.49 0.46 0.46 0.45 0.43 0.40 0.38
1.09 1.10 1.11 1.11 1.11 1.10 1.10 1.11 1.11 1.11 1.11 1.12 1.12 1.12 1.13 1.13 1.15 1.17 1.18 1.20 1.22 1.23 1.23 1.29 1.29 1.35 1.42 1.40 1.38 1.36 1.36 1.32 1.32 1.31 1.34 1.35 1.39 1.42 1.42 1.41 1.39 1.39 1.36 1.35 1.35 1.34 1.33 1.31 1.28 1.27 1.25 1.21 1.18 1.14 1.09 1.05 1.02 1.00 1.00 1.01 1.00 0.99 0.98 0.95 0.93 0.91 0.90 0.88 0.85 0.80 0.77 0.74 0.71 0.67 0.64 0.59 0.53 0.50 0.49 0.47 0.44 0.42 0.40 0.39 0.38
0.97 0.97 0.98 0.99 1.02 1.03 1.06 1.07 1.08 1.10 1.11 1.12 1.10 1.09 1.09 1.10 1.10 1.12 1.14 1.15 1.18 1.20 1.23 1.24 1.27 1.28 1.33 1.37 1.39 1.38 1.37 1.35 1.34 1.33 1.33 1.33 1.34 1.36 1.35 1.35 1.34 1.33 1.32 1.32 1.30 1.29 1.27 1.28 1.27 1.25 1.21 1.16 1.10 1.05 1.02 1.01 0.99 0.97 0.97 0.99 0.90 0.87 0.83 0.81 0.80 0.79 0.76 0.75 0.74 0.72 0.70 0.68 0.66 0.63 0.60 0.55 0.50 0.47 0.46 0.44 0.43 0.42 0.40 0.38 0.36
0.98 0.97 0.96 0.95 0.95 0.96 0.97 0.98 0.98 1.00 1.01 1.01 1.02 1.01 1.01 1.02 1.03 1.07 1.08 1.10 1.12 1.16 1.20 1.21 1.23 1.28 1.33 1.35 1.36 1.35 1.32 1.32 1.32 1.35 1.36 1.34 1.32 1.33 1.33 1.33 1.32 1.37 1.33 1.31 1.30 1.27 1.25 1.21 1.16 1.13 1.10 1.06 1.03 1.01 0.99 0.97 0.96 0.97 0.94 0.85 0.82 0.79 0.77 0.75 0.71 0.66 0.64 0.65 0.65 0.63 0.62 0.61 0.60 0.57 0.54 0.50 0.47 0.45 0.44 0.42 0.41 0.39 0.37 0.35 0.34
Wind_Speed
27 27 27 27 27 26 26 26 25 25 25 25 24 24 24 24 23 23 22 22 22 22 22 22 22 21 21 21 20 20 20 20 19 19 18 18 17 16 15 15 14 13 12 11 10 9 9 9 9 10 9 9 9 9 9 9 10 10 10 10 10 10 10 10 11 11 11 11 11 11 11 11 12 12 13 13 14 14 15 16 17 17 17 17 18
27 27 27 27 27 27 26 26 26 25 25 25 25 25 24 24 24 23 23 22 22 22 23 23 23 23 22 22 21 21 21 21 20 20 20 19 18 17 17 16 16 14 13 12 11 10 10 10 11 11 11 11 11 10 10 10 11 11 12 12 11 11 11 11 11 12 12 12 12 12 12 12 13 13 14 14 14 15 16 17 17 18 18 18 18
27 26 26 26 26 26 26 26 26 26 26 26 26 25 25 24 24 24 23 23 23 23 23 23 23 23 23 23 22 22 22 22 22 21 21 20 20 19 18 17 17 16 15 14 13 12 11 11 11 11 11 12 12 12 12 12 12 13 13 13 13 12 12 12 12 12 13 13 13 13 13 13 14 14 15 15 15 16 17 18 18 18 19 19 19
28 27 26 26 26 26 26 26 26 27 27 26 26 26 26 25 25 24 24 24 23 23 23 23 24 24 24 24 24 23 23 23 23 23 22 22 21 21 20 19 18 17 17 16 15 14 13 12 12 12 12 13 13 13 13 13 13 14 14 14 13 13 13 13 14 13 13 13 14 14 13 14 14 15 15 16 16 17 17 18 18 19 19 19 20
29 28 27 26 26 26 26 26 26 27 27 26 27 27 26 26 25 25 25 25 25 24 24 24 24 24 25 25 25 24 24 24 24 24 24 23 23 22 21 20 19 19 18 17 16 16 15 14 13 13 13 14 13 13 13 13 13 13 13 13 13 13 13 14 14 14 14 14 14 15 15 15 15 15 16 16 16 17 18 18 19 19 20 20 20
30 29 28 27 27 27 26 26 26 26 26 26 26 26 26 26 26 25 25 26 26 25 25 24 24 25 25 26 26 26 25 25 25 25 25 24 24 24 23 22 21 20 19 19 18 17 17 16 15 15 14 14 14 13 13 13 13 13 13 13 13 14 14 14 14 14 15 15 15 16 16 16 16 16 17 17 17 17 18 19 19 19 20 21 21
30 30 29 29 28 28 27 26 26 26 25 25 25 25 26 26 26 26 25 25 26 26 26 25 25 25 26 26 27 27 26 26 26 26 26 26 25 25 24 23 22 21 21 20 20 19 18 18 17 16 16 15 15 14 14 14 14 14 14 14 14 14 14 14 14 15 15 16 16 17 17 17 17 18 17 17 18 19 19 19 20 20 21 21 22
30 30 29 29 29 28 28 27 26 26 25 25 25 25 25 25 25 25 25 25 25 25 26 25 25 25 25 26 27 27 27 27 27 27 27 27 26 26 26 25 24 23 22 22 21 21 20 20 19 18 18 17 16 15 15 15 15 15 15 14 14 15 15 15 15 15 15 16 16 17 18 18 19 19 18 18 19 20 20 20 20 21 21 22 23
31 30 30 29 29 28 28 27 27 26 26 26 25 25 25 24 24 24 24 24 24 25 25 25 25 25 26 26 27 27 27 28 28 28 28 28 27 27 27 26 26 25 24 23 23 23 22 21 21 20 20 18 17 17 16 16 15 15 15 15 15 15 15 15 15 16 16 16 17 17 18 19 19 19 20 20 20 20 20 20 21 22 22 23 23
31 31 30 30 29 28 28 27 27 27 27 26 26 25 25 24 24 24 24 24 24 24 24 25 25 26 26 26 26 27 27 28 28 29 29 29 28 28 28 28 27 27 26 25 24 24 24 23 23 22 21 20 19 18 18 18 17 16 16 15 15 15 16 16 16 16 17 17 18 18 18 19 20 20 21 21 20 21 21 21 22 23 23 24 24
30 31 30 30 29 28 28 27 27 27 27 27 26 26 25 25 24 24 24 23 23 23 23 24 25 25 25 26 26 27 27 28 29 29 30 30 29 29 29 29 28 28 28 27 26 25 26 25 24 24 23 22 21 20 20 19 19 18 18 17 17 17 17 17 17 17 18 18 18 19 19 20 20 20 20 21 21 21 21 22 23 23 24 24 25
30 30 30 30 29 28 28 28 28 27 27 27 27 26 26 26 25 25 24 24 23 23 23 24 24 25 25 26 26 27 27 28 29 29 30 30 30 30 29 29 29 29 29 28 28 27 27 26 26 25 24 24 23 22 21 21 20 20 20 19 19 19 19 18 18 18 19 19 19 19 20 20 20 21 21 21 21 21 22 23 24 24 24 25 25
29 30 30 30 29 28 28 28 28 28 28 27 27 27 27 27 26 26 25 25 24 24 25 25 25 25 25 25 26 26 27 27 28 29 30 31 31 31 31 30 30 30 30 30 29 29 28 27 27 26 26 25 24 23 22 22 22 22 21 21 21 21 21 20 20 20 20 20 20 20 20 21 21 21 21 21 22 22 23 23 24 24 24 25 25
29 29 30 30 29 29 29 28 28 28 28 28 28 28 28 27 27 27 26 26 26 26 26 26 26 26 26 26 26 26 26 26 27 29 30 31 32 32 32 31 31 31 31 31 31 30 30 29 28 28 27 26 26 25 24 23 23 23 23 23 23 23 22 22 22 22 22 22 22 21 21 21 22 22 22 22 23 23 24 24 24 24 24 25 26
29 29 30 30 29 29 29 29 28 28 28 28 28 28 28 28 28 28 28 28 28 28 28 28 28 28 28 28 28 28 27 27 28 29 30 31 31 32 32 32 32 32 32 32 32 32 31 30 30 30 29 28 28 27 25 24 24 24 24 24 24 24 24 24 24 24 23 23 23 22 22 22 22 22 22 23 23 23 24 24 25 25 25 26 27
29 29 29 29 29 29 29 29 28 28 28 29 29 29 29 29 29 29 29 30 30 30 30 30 30 30 30 30 30 30 29 29 29 30 31 32 32 32 33 32 32 33 33 33 33 33 32 32 31 31 31 30 29 29 28 26 25 25 25 25 25 25 25 25 25 25 24 24 24 23 23 23 23 23 23 23 23 23 24 25 24 24 25 26 27
28 28 28 28 28 29 29 29 29 29 29 29 29 29 29 30 30 30 31 31 32 32 31 32 32 32 32 32 32 32 32 31 31 32 32 33 33 34 34 34 33 34 34 34 34 34 33 33 33 32 32 32 31 30 29 28 26 26 26 25 25 26 26 25 25 25 25 25 24 23 23 23 24 24 23 23 23 23 24 24 24 24 25 25 25
27 27 26 27 27 28 29 29 29 30 30 30 30 30 30 31 31 31 32 33 33 33 33 33 33 34 34 34 34 34 34 34 34 34 34 35 35 36 36 36 36 36 35 35 35 35 35 35 34 34 34 33 32 32 31 30 28 27 27 27 27 27 27 26 25 25 25 25 24 24 23 24 24 24 24 24 24 24 24 24 24 24 24 25 25
25 25 25 26 27 28 28 29 29 30 30 31 31 31 31 31 32 32 33 34 34 35 35 34 35 35 35 35 35 36 36 35 35 35 36 37 37 38 38 38 38 38 37 37 37 36 36 36 36 36 35 34 34 33 33 32 30 29 28 28 28 28 27 26 25 25 25 25 25 25 24 24 24 25 24 24 24 24 25 24 24 24 24 25 25
24 25 25 26 26 27 28 29 29 30 30 30 30 31 31 31 32 33 33 33 34 34 34 35 35 35 35 35 36 36 36 35 35 36 37 38 39 39 39 40 41 40 39 39 38 37 37 37 37 38 37 36 35 35 35 33 32 31 30 29 29 29 28 27 26 25 25 25 25 25 25 24 24 24 24 23 23 24 24 24 24 24 24 24 24
24 25 25 26 26 27 28 29 29 29 30 29 30 30 31 31 32 33 33 33 33 34 34 34 35 35 36 36 37 37 37 36 36 37 38 39 41 41 41 42 42 41 40 39 38 38 38 38 38 38 39 38 38 37 36 35 34 33 32 31 30 29 28 28 27 26 26 25 25 25 24 24 24 24 23 23 23 23 24 23 23 23 23 23 23
24 24 25 26 26 27 28 28 28 29 29 29 30 30 31 31 32 32 32 32 33 33 33 34 35 36 36 37 38 38 39 38 38 39 39 40 42 43 43 43 43 43 42 41 41 41 41 41 40 40 40 40 39 38 37 36 35 34 33 32 31 30 29 28 27 26 26 25 25 25 24 24 23 23 23 23 23 23 23 23 23 23 23 22 23
23 24 24 25 27 27 28 28 28 28 29 29 29 30 30 31 32 32 32 32 32 32 32 33 34 35 36 37 37 38 38 38 38 39 40 41 43 44 45 45 45 45 45 44 44 43 43 43 43 42 42 41 41 40 39 37 36 35 33 32 32 30 29 28 27 27 26 26 25 25 24 23 24 23 23 23 23 22 22 22 22 22 22 22 23
22 23 23 24 25 26 27 28 28 28 28 28 29 30 30 30 31 31 32 32 32 33 33 33 34 35 36 37 37 37 37 38 39 39 40 42 43 44 45 46 46 47 47 46 45 45 44 44 43 43 43 42 42 42 40 38 37 36 34 33 32 31 30 29 28 27 27 26 25 24 24 24 24 24 23 22 22 22 22 21 21 21 21 22 22
22 22 23 23 24 25 26 26 27 27 27 28 29 30 30 31 31 31 31 32 32 33 33 34 35 36 36 36 37 37 38 39 40 40 40 42 43 45 46 46 47 47 48 48 47 45 44 43 43 43 43 43 42 42 40 39 38 37 35 34 33 32 31 30 28 28 27 27 26 25 25 25 25 24 23 22 22 21 21 21 21 21 21 22 22
22 22 23 23 23 24 25 25 26 27 27 28 28 29 30 30 31 31 31 32 33 33 34 35 36 37 37 38 38 39 40 41 41 41 42 43 43 45 46 47 48 48 48 49 49 47 45 44 43 43 43 43 42 42 40 39 38 37 36 35 34 33 31 30 29 28 28 27 26 26 25 26 25 24 23 22 21 21 21 21 21 21 21 21 22
21 21 22 22 23 23 24 24 25 26 27 27 28 29 29 30 31 31 32 33 33 34 35 36 37 38 39 40 41 41 42 42 43 43 43 44 44 45 46 47 49 49 49 50 50 49 47 46 45 45 44 43 42 42 40 39 38 37 37 36 34 33 32 31 30 29 28 27 27 27 27 26 25 23 22 21 21 21 21 21 21 20 20 21 21
20 20 21 21 22 22 23 24 24 25 26 27 28 28 29 30 31 31 32 33 34 35 36 37 38 39 41 41 42 43 44 45 45 45 45 46 47 47 48 49 50 50 50 51 51 50 49 47 46 46 45 44 43 41 40 39 38 37 37 36 35 33 32 31 30 29 28 28 27 27 26 26 24 23 22 21 21 21 21 21 20 20 20 20 20
19 19 20 20 21 22 22 23 24 25 25 26 27 28 29 30 31 32 33 34 35 36 37 38 39 40 42 43 44 45 46 47 47 48 49 50 50 51 52 52 53 53 54 54 53 52 50 48 47 46 46 46 45 43 41 39 38 37 37 36 35 34 32 31 31 30 29 28 27 26 25 24 23 22 22 21 21 21 21 20 20 20 19 20 20
20 20 20 21 21 22 23 23 24 25 26 26 27 27 28 29 31 32 33 35 36 37 39 40 41 42 44 45 46 48 49 50 51 51 52 53 55 55 56 56 56 57 57 56 54 53 52 50 49 48 48 48 47 44 43 41 40 38 38 37 36 34 33 32 31 29 28 27 26 25 25 24 23 22 22 21 21 21 20 20 19 19 19 19 20
20 21 21 21 22 22 23 24 24 25 25 25 26 26 27 28 29 31 33 34 35 37 38 39 40 42 44 46 48 50 52 54 56 56 56 57 57 59 60 60 60 60 59 57 56 55 53 52 52 51 51 51 49 46 44 42 41 39 38 38 36 35 34 32 31 29 28 26 25 24 25 24 23 23 22 21 20 20 20 19 19 19 19 19 20
20 20 21 21 21 22 23 23 24 24 25 25 26 27 28 29 30 31 32 33 34 35 36 37 38 39 40 42 44 47 49 51 54 56 58 59 60 62 62 63 63 62 61 60 59 58 56 54 54 55 55 54 52 49 46 43 41 40 39 37 36 35 34 33 31 29 27 26 24 25 25 24 23 23 21 20 20 20 20 19 19 20 19 19 19
20 20 21 21 22 22 23 23 24 25 26 27 27 28 29 30 31 31 32 33 33 34 34 35 36 37 38 40 42 44 47 50 52 54 57 59 61 63 64 64 65 64 63 61 61 59 56 54 53 55 57 57 55 50 47 44 42 40 39 37 36 36 35 33 31 29 27 26 26 26 25 24 23 21 21 20 20 20 20 20 20 19 19 19 18
19 20 21 22 23 23 24 24 25 26 27 27 28 29 29 30 31 31 32 32 32 33 34 35 35 36 37 39 40 43 46 49 52 54 57 59 60 62 63 64 65 65 65 63 61 59 56 52 49 48 50 53 52 48 46 44 42 41 39 37 36 36 34 33 31 29 27 27 27 26 25 23 22 21 20 20 21 21 21 21 20 19 18 18 18
20 21 22 23 24 24 25 25 26 27 27 28 28 29 29 29 30 30 30 31 32 33 33 34 34 35 36 38 40 43 46 49 52 55 57 59 60 60 62 63 64 64 65 64 61 58 54 50 46 43 42 43 43 42 42 42 41 39 38 37 35 34 33 32 30 29 27 27 27 25 24 23 22 21 20 20 21 21 21 20 19 19 18 18 18
22 22 22 23 24 24 25 25 26 26 27 27 27 28 28 28 29 29 29 30 31 31 32 32 33 35 36 38 40 42 44 46 49 51 53 55 57 58 61 64 64 63 63 61 58 54 50 46 44 43 41 40 39 39 40 40 38 36 35 34 33 33 32 32 30 29 28 27 26 24 23 23 21 20 21 21 22 22 21 20 19 18 18 17 17
22 23 23 23 24 24 25 25 25 26 26 26 26 27 27 27 27 28 28 29 29 29 30 31 33 34 35 36 38 41 42 44 46 48 49 51 52 54 57 58 57 56 55 55 53 49 45 43 43 41 39 38 38 38 38 37 35 33 32 32 32 32 32 31 30 29 28 27 25 24 23 22 21 21 21 22 22 21 20 20 19 18 18 17 17
21 22 22 23 23 24 24 24 24 25 25 25 25 25 26 26 26 27 27 28 28 29 29 31 32 33 34 35 37 38 40 41 42 44 46 46 45 44 41 37 38 40 42 46 47 43 39 40 40 38 36 35 35 35 35 34 32 31 30 30 30 30 31 30 30 29 28 26 25 24 23 22 22 21 22 22 22 21 20 19 19 18 18 17 18
20 20 21 22 22 23 23 23 24 24 24 24 24 24 24 25 25 26 27 27 28 28 29 30 31 32 32 33 34 35 36 37 37 38 40 38 33 27 18 13 20 24 29 35 37 35 35 35 35 34 34 33 32 31 31 31 30 29 29 28 27 28 29 29 29 29 27 25 24 23 23 23 22 22 22 22 22 21 20 19 19 18 18 17 18
19 19 20 20 21 21 21 22 22 23 23 23 23 23 24 24 25 26 26 27 28 28 28 28 29 30 30 31 31 32 32 31 30 31 32 30 26 18 6 6 12 16 22 26 27 29 31 31 31 31 32 31 30 29 28 28 27 27 26 25 25 25 26 27 27 27 26 25 24 23 23 23 23 22 22 22 21 20 19 19 19 18 18 18 17
19 19 19 19 20 20 20 21 21 22 22 22 23 23 23 24 24 25 26 26 27 27 27 26 27 28 28 28 28 28 27 25 24 25 24 22 21 18 12 12 13 14 19 23 25 26 26 25 25 26 27 28 27 27 26 25 25 24 24 23 23 24 24 25 25 25 24 24 24 23 23 23 23 22 22 21 20 20 19 19 19 18 18 18 18
20 20 20 20 20 20 20 21 21 22 22 22 22 23 23 23 24 25 25 25 25 25 25 25 25 26 26 26 25 24 23 21 20 20 19 17 14 11 9 10 12 13 16 18 19 19 19 19 21 22 23 24 24 24 24 24 23 22 22 22 22 22 23 23 23 23 23 23 23 23 23 23 22 22 21 20 20 20 19 19 19 18 18 18 18
20 20 21 21 21 21 21 21 22 22 22 22 22 23 23 23 23 23 23 23 23 23 23 23 24 24 24 24 23 21 20 19 17 16 16 14 12 9 5 1 3 6 8 11 13 15 16 17 18 19 20 21 21 21 22 22 21 21 21 21 21 21 21 21 21 21 22 22 23 23 22 22 21 21 20 20 20 19 19 19 19 19 19 18 18
19 20 20 20 21 21 21 21 21 21 22 22 22 22 22 22 22 22 22 22 22 22 22 22 22 22 22 21 20 20 18 17 15 14 13 12 10 8 5 4 4 6 8 9 11 12 13 14 16 17 18 19 19 19 20 20 20 19 19 19 19 19 19 19 20 21 21 21 21 21 21 21 20 20 20 20 19 19 19 19 19 19 19 19 18
18 18 18 19 19 19 19 20 20 20 21 21 21 21 21 21 21 21 21 21 21 21 21 20 21 21 20 19 18 17 16 14 13 12 11 10 9 6 4 3 4 6 7 8 9 10 11 13 14 16 17 18 18 18 18 18 18 18 18 18 18 19 19 19 20 21 21 21 20 20 21 20 20 20 20 19 19 19 19 19 19 20 19 19 19
16 16 17 17 17 17 17 18 18 19 19 20 20 20 20 20 21 21 21 20 20 20 20 20 20 19 18 17 17 16 15 13 12 11 10 9 8 6 4 4 4 5 6 7 8 9 11 12 14 15 15 16 16 16 16 16 16 16 17 17 18 18 19 19 20 20 20 20 20 20 20 20 20 20 20 19 19 19 20 20 20 20 20 19 19
15 15 15 16 16 16 16 17 17 18 18 19 19 19 19 20 20 20 20 20 20 19 19 19 19 18 17 16 16 15 14 13 11 10 9 8 7 7 6 6 6 6 7 8 9 10 10 11 12 13 13 14 14 14 15 15 15 16 16 17 17 18 18 18 19 19 19 20 20 20 20 20 20 20 20 19 19 19 20 20 20 20 20 20 20
14 14 15 15 15 16 16 16 17 17 17 17 18 18 18 19 19 19 20 19 19 18 18 17 17 17 16 15 15 14 13 12 11 10 8 8 7 7 7 7 7 7 8 9 9 10 11 11 12 12 13 13 13 14 14 15 16 16 16 16 17 17 17 18 18 18 19 19 20 20 20 20 20 20 20 20 20 20 20 20 21 20 20 20 20
13 13 14 14 14 15 15 15 16 16 16 16 17 17 17 17 18 18 18 17 17 17 16 16 16 15 15 14 14 13 13 12 11 10 9 8 8 8 8 8 8 8 8 9 10 10 11 12 12 13 13 13 14 14 15 15 16 16 16 16 16 16 17 18 18 18 19 19 20 20 20 20 20 20 20 20 20 20 21 21 21 21 21 21 21
12 12 12 13 13 13 14 14 15 15 15 15 16 16 16 16 16 16 16 16 16 16 16 16 16 16 15 14 14 13 13 12 11 10 10 10 9 9 9 9 9 9 9 9 10 11 12 12 12 13 13 14 14 14 15 15 15 15 15 15 16 16 16 17 17 18 19 20 20 20 20 20 20 20 20 20 20 20 21 21 21 21 21 21 21
11 11 11 11 12 12 12 13 13 14 14 15 15 15 15 15 15 15 15 15 15 16 16 15 15 15 15 15 14 14 13 13 12 11 11 11 11 11 11 11 11 11 11 11 12 12 12 13 13 13 13 14 14 14 14 14 14 14 15 15 15 15 16 16 17 17 19 19 20 20 20 20 20 20 20 20 20 20 21 21 22 22 22 22 21
Wind_Direction
216 218 220 221 222 223 224 224 226 227 229 230 232 233 233 233 234 235 235 235 235 235 236 235 235 236 237 238 238 237 235 234 233 234 235 236 236 237 238 240 244 248 252 254 257 261 264 267 274 279 282 285 287 289 289 287 285 284 284 286 288 288 287 287 291 295 295 294 295 295 295 294 296 297 297 297 297 296 297 296 297 298 298 299 298
218 219 220 222 223 224 225 226 227 228 229 231 233 234 234 234 234 235 235 235 235 236 236 236 236 236 237 239 239 238 236 234 234 234 234 235 236 237 237 239 243 247 250 253 255 258 261 265 270 275 279 281 283 286 288 288 286 285 284 283 283 285 285 285 287 290 291 293 293 292 291 290 292 294 295 295 295 295 296 297 298 298 298 299 299
220 220 221 222 223 224 225 227 228 229 230 232 233 234 235 235 235 235 236 236 237 236 236 237 237 237 238 239 239 238 237 235 234 234 234 234 235 237 237 238 242 246 249 252 254 256 260 263 267 272 275 277 279 283 286 288 288 286 284 281 280 282 284 285 285 286 289 291 291 290 289 289 291 292 293 294 294 294 295 297 298 298 298 298 299
222 222 223 223 223 224 225 226 228 229 230 232 234 235 236 237 237 236 236 237 238 238 238 238 238 238 239 239 239 238 237 236 235 234 234 234 235 236 237 238 241 245 248 251 254 256 258 261 265 269 273 275 278 281 284 286 288 288 284 279 277 280 284 285 284 285 287 289 290 290 290 290 292 293 293 294 295 295 296 297 298 298 298 298 299
224 224 224 224 224 224 224 225 227 228 230 232 233 235 237 238 239 238 237 238 239 240 239 239 239 240 240 240 239 239 238 236 235 235 235 235 236 237 238 239 241 244 247 250 253 255 258 259 263 267 270 273 276 279 282 284 288 289 284 279 278 281 284 286 285 284 285 287 289 290 292 292 293 294 295 295 296 296 298 299 300 300 300 300 300
224 225 226 226 226 225 225 226 227 228 229 231 233 235 236 238 239 239 239 239 239 240 240 240 240 240 240 241 240 239 238 237 236 236 236 236 236 238 239 239 241 244 247 250 252 255 257 259 262 265 268 271 273 275 278 281 285 287 284 280 279 282 284 286 287 286 285 287 289 290 292 293 295 296 296 296 297 299 301 302 302 302 302 302 302
223 225 226 227 227 227 226 226 227 229 230 232 233 235 236 237 238 239 239 238 238 239 240 241 241 241 241 241 240 240 239 237 237 236 236 237 237 238 239 240 242 244 247 249 252 254 257 259 261 263 265 268 270 272 275 279 282 283 282 280 279 281 283 285 287 287 286 287 289 290 292 293 294 296 297 297 298 300 302 303 304 303 303 304 304
223 224 226 227 228 228 227 227 228 230 232 233 234 236 237 237 237 238 238 238 238 238 239 241 241 241 240 240 240 240 239 238 238 237 237 237 238 239 240 241 242 244 246 249 251 254 256 259 261 262 264 265 267 269 272 276 280 281 281 280 278 279 282 285 287 287 288 289 289 291 292 292 292 294 295 296 297 299 301 302 303 304 304 304 305
223 224 226 227 228 228 228 229 230 231 233 234 235 236 237 237 237 238 238 238 238 239 240 241 241 241 240 240 240 240 240 240 239 238 238 239 239 240 241 242 243 245 246 249 251 254 256 258 261 262 263 263 264 266 269 272 276 280 281 279 277 278 281 283 286 288 289 289 290 291 292 291 291 291 291 293 295 297 299 301 302 303 304 304 305
224 225 226 227 227 228 228 230 231 231 232 233 234 235 236 237 238 238 238 238 239 239 240 241 242 242 241 241 240 241 241 241 240 239 239 240 241 242 242 243 244 245 247 249 251 253 255 257 260 261 261 261 262 264 267 270 272 276 280 278 276 277 280 281 283 286 288 290 290 291 291 291 290 289 290 292 294 296 298 299 301 302 303 304 305
224 225 226 226 226 227 228 229 230 230 231 232 233 234 235 236 237 238 238 239 239 240 240 241 242 243 243 242 242 242 243 242 241 240 240 241 242 243 244 245 246 246 248 249 251 253 255 256 258 260 260 260 261 263 265 268 269 271 275 277 276 276 279 281 282 284 287 290 291 291 291 291 290 289 289 291 293 295 297 298 300 301 302 303 304
224 225 225 225 226 227 228 228 229 230 230 231 232 233 234 235 237 238 238 239 240 241 241 242 242 244 245 245 244 244 244 243 242 241 241 242 242 244 246 247 247 248 249 250 251 253 255 256 257 259 259 259 260 262 264 266 268 269 271 274 275 276 279 281 282 284 287 289 291 291 291 291 290 290 289 290 293 295 296 298 299 299 300 302 303
225 225 224 225 226 227 228 229 230 231 232 232 233 234 235 236 237 239 240 241 242 243 243 244 244 245 246 247 247 247 247 245 243 242 242 242 243 244 246 248 248 248 249 250 252 253 254 256 257 258 259 258 259 261 263 265 267 269 271 273 274 275 278 280 282 284 287 289 290 290 290 291 291 290 289 290 292 295 296 298 298 299 300 301 302
225 225 225 226 227 228 229 230 231 233 233 234 234 235 237 238 239 240 242 243 244 245 246 246 247 247 248 249 249 250 249 248 245 244 244 243 243 245 247 248 249 249 249 250 251 252 253 254 256 257 258 258 258 260 262 264 267 268 270 271 272 274 276 279 280 282 284 287 289 290 290 290 290 291 291 291 292 294 296 297 298 299 300 301 303
225 226 227 228 228 229 230 231 233 234 234 235 236 237 238 240 241 242 244 245 247 248 248 249 249 250 250 250 251 252 251 250 248 247 246 245 245 246 247 249 250 250 250 250 251 252 253 254 255 256 257 258 258 258 261 264 266 267 268 270 272 273 275 277 279 280 281 283 286 288 289 289 290 291 292 293 293 294 296 297 298 299 301 302 304
225 226 228 229 230 230 231 232 233 234 235 235 237 238 240 242 243 244 246 247 249 250 251 251 252 252 252 252 253 254 253 251 249 249 248 247 247 248 248 249 250 251 251 251 251 252 253 254 254 255 256 258 258 257 259 262 265 266 267 270 272 273 275 276 278 279 280 282 284 286 288 289 290 292 294 294 294 295 296 297 299 300 301 303 304
226 227 229 230 231 232 233 233 233 234 235 236 238 240 242 243 244 246 247 248 250 252 253 253 254 254 254 254 254 255 255 253 251 250 250 249 249 249 249 249 250 251 251 251 252 253 253 254 254 254 255 257 257 257 257 259 263 266 267 269 271 273 275 276 277 277 278 281 284 286 287 288 289 292 294 294 294 296 297 297 298 300 301 303 304
226 227 229 230 231 232 233 233 234 235 236 237 239 241 243 244 246 247 248 249 251 252 253 254 255 255 255 256 256 256 257 256 253 252 251 250 250 251 251 251 251 251 251 252 253 253 253 253 253 253 254 255 256 255 256 258 261 264 266 267 269 272 274 275 277 278 278 279 283 285 286 287 288 290 292 292 292 294 296 297 298 300 301 302 303
226 227 228 230 231 232 233 234 235 236 238 239 241 243 244 246 247 249 250 251 252 252 252 253 255 256 256 257 256 257 258 257 255 253 252 251 250 252 252 252 252 252 252 253 254 254 254 253 252 251 253 254 254 254 255 257 259 262 264 266 268 270 272 273 274 277 277 277 280 283 284 285 287 289 291 291 291 293 294 296 298 299 300 301 303
227 229 230 232 233 234 235 236 237 239 240 241 243 244 246 248 249 250 251 252 252 253 253 253 255 256 256 257 257 258 259 258 256 255 253 251 251 252 253 253 253 253 253 254 255 256 255 254 253 251 252 253 253 254 255 256 257 260 262 264 266 268 271 271 272 274 277 276 277 281 283 285 286 288 290 290 290 292 293 294 296 298 299 300 301
231 231 232 233 234 236 237 238 239 241 242 243 245 247 248 250 250 251 252 252 253 253 254 255 256 256 257 258 258 259 259 258 257 256 254 252 251 251 252 253 254 254 253 254 255 256 254 254 254 252 251 251 251 252 254 254 256 259 260 262 265 267 269 269 269 271 275 276 277 279 283 284 285 287 289 290 291 291 292 293 295 296 297 298 301
234 234 234 234 236 237 239 240 242 244 246 247 248 249 250 251 251 252 253 254 254 254 255 256 257 258 259 260 260 261 261 260 259 259 256 253 252 251 252 254 254 253 254 254 255 255 254 253 254 252 251 250 250 251 252 252 254 257 259 261 263 264 265 266 267 269 272 274 275 278 281 283 285 286 287 289 290 291 292 293 293 295 295 297 300
237 238 238 238 239 240 241 243 244 246 248 248 249 250 252 253 253 253 254 255 255 256 257 258 260 261 262 262 262 263 262 261 260 260 258 256 254 254 254 254 253 253 254 255 255 255 255 254 253 252 251 250 249 250 251 251 252 254 256 258 260 260 261 262 264 267 269 270 273 277 279 281 283 285 286 287 288 289 291 292 293 294 294 296 299
239 240 241 242 242 243 244 245 246 248 249 250 250 251 253 254 254 254 255 256 257 258 259 260 262 264 264 263 263 263 262 262 262 261 259 257 257 256 255 254 253 253 254 255 255 255 255 254 253 252 251 250 249 249 250 249 250 251 253 255 257 257 257 259 262 264 265 267 270 273 275 279 283 282 283 284 286 288 290 291 292 293 294 296 298
239 240 242 244 245 245 246 246 247 249 250 251 251 252 253 255 255 256 257 258 259 260 262 263 264 265 265 265 265 265 264 263 264 263 261 259 258 257 256 255 255 254 254 255 255 255 253 252 251 251 250 249 248 249 249 248 248 249 250 252 254 255 256 257 259 261 262 264 267 269 273 280 282 279 279 282 284 286 288 290 292 293 294 296 298
238 241 242 244 245 245 245 246 247 248 250 251 253 254 256 256 257 258 258 259 261 262 263 265 266 266 267 267 267 267 266 265 266 265 263 260 259 258 256 256 255 255 254 255 255 253 252 251 250 250 250 248 247 248 248 247 247 247 248 250 252 253 254 255 256 258 259 262 264 267 273 280 281 277 276 279 282 284 286 289 291 293 294 296 298
239 241 243 245 246 246 246 247 248 249 251 253 255 256 257 258 258 259 259 260 262 263 265 266 267 268 268 269 268 268 267 266 266 266 264 262 260 259 257 257 256 255 254 254 254 253 252 250 249 249 248 247 246 246 245 245 245 246 247 249 251 252 252 252 253 255 257 259 263 267 272 278 278 274 274 276 278 281 284 287 289 291 292 293 296
240 242 244 246 247 248 249 249 250 251 253 255 257 258 259 259 260 260 261 262 264 266 267 267 268 269 270 270 269 269 268 267 267 267 265 264 262 260 258 257 256 254 253 253 253 253 251 249 247 246 246 246 245 244 244 244 244 245 246 247 249 251 251 250 251 254 256 259 263 267 272 274 274 272 272 274 276 280 283 285 287 289 291 292 295
241 243 245 247 248 249 250 252 253 254 256 258 259 260 261 261 262 262 263 265 267 269 270 271 271 272 272 272 271 271 270 269 269 268 266 264 262 261 259 258 257 255 253 252 251 250 248 246 245 244 244 244 244 243 243 243 242 243 244 245 247 249 249 248 250 253 255 258 261 266 270 272 272 270 270 271 275 278 281 283 284 286 289 291 294
244 246 248 250 251 252 254 255 257 259 261 262 262 263 264 264 265 266 267 269 271 272 273 273 274 274 274 274 273 273 273 273 273 272 269 266 263 262 261 260 258 257 254 252 251 249 246 244 243 243 242 242 241 241 241 240 240 241 242 243 245 247 246 246 249 250 252 256 260 264 267 269 268 267 268 270 273 277 279 281 282 284 286 289 292
247 249 252 254 256 257 258 259 260 262 263 263 264 265 266 268 269 270 271 273 274 275 276 277 277 276 276 276 276 276 276 276 275 274 272 270 266 264 262 260 259 257 254 253 252 250 247 245 244 243 242 241 240 238 237 237 237 238 240 242 243 243 243 243 245 247 250 254 258 263 268 268 266 264 266 268 271 275 278 280 280 282 284 287 291
247 250 253 255 257 259 260 261 262 262 263 264 265 267 269 271 272 273 275 276 278 279 280 280 280 280 279 280 280 280 280 280 279 277 275 272 270 266 263 261 258 256 253 251 250 249 247 246 244 242 241 240 238 235 234 234 234 235 238 240 238 238 239 240 241 244 248 252 257 264 268 266 263 263 265 267 270 274 277 278 279 280 282 286 290
248 251 253 255 257 259 260 261 263 264 265 267 269 271 273 275 276 277 278 278 279 280 280 281 282 283 283 284 284 284 284 284 283 281 279 276 273 269 266 262 258 255 252 249 248 247 246 245 244 244 241 238 234 232 230 229 229 231 235 236 235 235 237 238 239 243 247 251 258 264 264 262 260 261 263 265 270 274 276 277 277 278 280 284 288
252 255 256 257 259 261 262 264 266 267 269 271 272 274 276 277 277 278 279 279 280 280 281 282 284 285 286 287 288 290 291 290 288 286 284 281 277 272 268 264 259 254 250 247 246 244 243 241 242 244 241 233 227 225 224 224 226 230 232 233 233 234 234 235 239 243 247 253 260 261 259 258 258 260 262 266 271 274 275 275 276 276 278 282 287
256 258 260 261 262 263 265 267 268 270 272 273 274 275 276 276 277 278 279 279 281 281 283 284 286 288 290 291 293 296 297 297 295 292 288 285 281 276 270 265 260 254 249 246 242 240 239 237 236 237 234 226 221 220 220 221 225 229 229 229 231 231 231 234 238 243 249 256 259 256 254 255 257 258 262 267 271 273 273 273 274 274 276 281 285
260 262 263 265 266 267 268 269 270 271 272 273 274 274 275 275 277 278 279 280 282 283 285 286 289 291 293 295 297 300 301 302 302 299 295 291 285 278 273 268 261 252 247 243 238 234 233 232 230 228 226 224 222 221 220 222 225 227 226 228 231 233 234 236 239 244 251 255 254 252 251 253 255 257 262 267 270 271 271 272 272 273 276 279 282
265 266 267 268 269 269 270 271 271 271 271 272 273 274 275 276 278 279 281 283 285 286 287 289 292 294 296 298 302 304 305 307 309 307 304 299 292 285 278 269 257 246 240 236 231 228 226 225 222 220 220 220 220 220 220 222 224 225 226 230 233 235 238 240 241 244 249 251 250 249 250 252 254 257 262 267 269 269 269 269 271 272 274 276 279
269 270 270 271 271 271 271 271 271 271 271 272 274 275 276 278 280 281 283 286 288 288 289 292 295 297 299 302 306 309 310 313 315 313 311 308 303 296 285 263 241 232 229 224 221 219 217 214 213 213 213 213 215 217 218 220 223 226 230 233 236 239 241 241 240 242 246 248 247 247 249 252 254 258 262 266 267 266 267 268 269 270 272 273 275
270 271 271 272 272 271 272 272 272 272 273 274 276 278 279 281 282 284 285 288 289 289 290 293 297 299 300 304 309 312 315 320 324 326 326 325 321 313 293 238 209 209 211 210 209 206 203 201 202 205 206 208 213 218 220 223 227 230 232 235 238 240 241 240 239 241 243 244 244 247 250 252 255 258 262 264 264 264 265 266 267 269 270 271 273
270 271 272 273 272 272 273 273 273 274 276 277 278 280 281 282 284 285 285 287 289 289 290 293 297 299 301 306 311 314 318 323 330 336 341 350 358 0 7 158 173 188 194 193 190 188 188 191 197 202 206 210 215 220 223 225 227 228 230 234 237 238 238 237 237 238 240 241 244 248 251 252 254 258 261 262 262 263 264 265 266 267 268 269 271
268 270 271 272 272 273 274 275 276 276 277 278 279 280 282 283 284 284 285 287 288 289 289 292 296 299 302 306 311 315 320 325 330 334 339 352 10 27 60 112 134 149 163 169 172 175 181 189 196 201 206 210 214 218 221 223 225 228 231 234 237 237 237 237 236 236 238 241 245 249 251 252 255 258 259 260 261 263 264 264 264 265 266 267 269
267 268 269 270 272 273 275 276 277 277 278 278 278 280 281 282 282 283 284 286 288 288 288 291 295 298 302 306 310 314 319 324 329 333 335 336 346 10 54 101 123 138 153 166 176 184 191 196 199 202 205 208 212 216 219 223 227 230 231 233 236 236 236 235 234 236 239 243 246 249 250 252 255 257 257 259 260 261 262 262 263 264 264 265 267
268 269 269 270 271 273 274 275 276 276 276 277 278 278 280 280 281 282 283 285 288 289 289 291 294 298 301 304 305 308 315 321 325 330 335 335 334 337 346 29 170 183 190 195 199 201 202 203 204 207 208 209 213 218 221 224 228 230 230 232 233 232 233 234 236 238 241 244 246 248 250 252 254 255 257 258 259 260 261 261 261 262 263 264 266
271 271 271 271 272 273 274 275 275 276 276 277 278 279 279 280 280 281 283 285 287 289 290 292 295 298 301 302 301 303 307 313 317 321 324 328 332 329 314 278 241 227 224 219 212 210 210 209 208 210 211 214 218 222 224 226 228 228 228 228 228 229 233 237 239 241 243 244 246 248 250 252 254 255 257 258 258 259 260 259 260 261 262 263 265
273 272 273 273 274 275 276 276 276 277 278 279 280 281 281 281 281 283 284 286 287 288 290 292 294 297 299 300 301 303 305 306 307 310 313 316 319 320 306 270 236 228 229 227 222 218 216 213 212 213 215 218 221 223 224 224 225 225 226 227 230 233 238 241 242 244 245 246 248 250 251 252 253 255 256 257 257 258 259 259 259 259 260 262 264
275 274 275 275 275 276 277 276 277 278 280 282 282 282 282 283 283 284 285 287 287 288 289 291 292 295 297 298 298 299 302 301 298 297 298 299 299 293 280 262 241 231 229 228 224 219 216 214 215 216 217 219 220 221 221 222 224 226 230 233 236 240 242 244 246 247 247 248 250 251 250 251 253 255 256 257 257 258 259 259 258 258 259 261 263
277 277 277 277 276 277 277 277 277 279 281 282 282 282 282 283 284 285 286 287 288 288 289 290 291 292 294 295 296 295 295 295 293 291 287 282 275 266 260 254 246 239 235 232 228 224 221 219 217 215 215 217 218 220 222 226 229 233 236 240 243 245 246 247 247 248 248 249 250 251 251 253 255 256 256 257 258 258 258 258 258 258 258 260 263
279 279 279 279 278 277 277 278 279 279 281 282 283 283 284 285 286 287 287 287 287 287 288 289 291 291 291 291 292 292 291 289 286 283 278 270 260 252 250 250 247 242 237 233 230 227 223 220 217 215 215 217 220 224 227 231 234 238 241 244 245 246 247 247 247 248 249 250 250 251 254 255 256 257 257 257 257 258 258 257 257 257 258 259 262
280 281 280 280 280 279 278 279 280 280 281 283 284 285 288 289 288 289 288 287 287 287 288 288 288 290 290 290 289 288 286 284 281 279 275 269 261 254 251 251 248 243 238 235 232 229 225 222 220 219 220 222 225 228 231 235 238 242 244 245 246 247 248 249 249 250 250 251 251 253 256 257 257 258 259 257 257 257 257 257 256 257 258 259 261
281 283 283 282 282 281 279 280 281 282 283 285 286 288 290 291 291 291 290 289 288 287 287 286 285 284 284 285 285 284 283 282 280 277 274 270 266 262 259 256 251 247 243 239 235 232 230 229 228 226 226 227 229 233 235 238 241 243 245 246 247 247 248 250 251 251 252 253 254 255 257 257 257 258 258 257 257 257 256 256 256 257 258 259 261
282 284 286 286 286 284 283 283 284 285 286 288 289 290 291 292 293 293 292 291 290 287 286 285 284 281 279 278 278 279 280 280 278 275 273 270 268 266 263 259 253 249 246 245 242 238 236 234 232 230 231 232 234 236 238 240 242 243 244 244 244 246 248 251 252 253 254 255 255 256 256 256 256 256 257 257 257 257 257 256 257 258 259 259 260